SECOR 3

Satellite information

Favourite Embed

Satellite Type and Status

PAYLOADIN ORBIT

Key statistics

Satellite SECOR 3 at a glance.

Uptime

21978

Days in orbit

Revolutions

≈ 14.0

Per day

Orbit

LEO

Low Earth Orbit

Inclination

70.1

Latest

Satellite identification and parameters

Extended collection of information and parameters for SECOR 3.

Object identification

Identified? True

Debris? False

Object name: SECOR 3

International designator: 1965-016E

Object number (NORAD): 1208

Object ID (CCSDS): 1208

Country: UNITED STATES OF AMERICA (US)

Current information (Y/N): Y

RCS size: MEDIUM

Orbital parameters

Period: 103.152 minutes

Inclination: 70.0795 deg

SMA: 7285.833 km

Apoapsis: 924.128 km

Periapsis: 891.269 km

RAAN: 321.0327 deg

Eccentricy: 0.002255

Argument of periapsis: 256.2118 deg

Mean anomaly: 119.8434 deg

Mean motion: 13.95995203 rev/day

Mean motion (dot): 0.00000067 rev/day2

B* drag term: 0.000086692 1/REarth

Two-line elements (TLE)

Creation date: May 11, 2025, 2:40 a.m.

Reference frame: TEME

Reference center: EARTH

Epoch: May 10, 2025, 7:52 p.m. UTC

TLE line 0: 0 SECOR 3

TLE line 1: 1 01208U 65016E 25130.82793144 .00000067 00000-0 86692-4 0 9996

TLE line 2: 2 01208 70.0795 321.0327 0022550 256.2118 119.8434 13.95995203 63014

Live tracking on map

Real-time ground track for satellite SECOR 3.

In-orbit conjunctions

There are no conjunctions computed for SECOR 3, at the moment. Check back to stay up to date, as we update our databases every day.

Go to all conjunctions

Associated space launch

Poppy was the follow-on ELINT system, which succeeded the Grab ELINT satellite system.

SECOR 3 was lifted into orbit during the mission ‘Thor SLV-2 Agena D | Poppy 6A,B,C,D’, on board a Thor SLV-2 Agena D space rocket.

The launch took place on March 9, 1965, 6:29 p.m. from Space Launch Complex 2W.

For more information about the launch, click the button.

Launch to space Thor SLV-2 Agena D | Poppy 6A,B,C,D
Thor SLV-2 Agena D | Poppy 6A,B,C,D

Agency: N/A

Status: Launch Successful

Launch date: March 9, 1965, 6:29 p.m. UTC

Rocket: Thor SLV-2 Agena D

Launch pad: Space Launch Complex 2W

Location: Vandenberg SFB, CA, USA

...

Latest news about this satellite

There are no fresh news available about this satellite. Check back as we update our databases every day.


Newsletter sign-up

Weekly statistics, charts and insights to help you stay on top of the space industry.